DateTimeUTC,F1_A11,F1_S11,BsB_S11,BsG_S11,BsR_S11,BbsB_S11,BbsG_S11,BbsR_S11,BaB_A11,BaG_A11,BaR_A11,Tu_S11,T_S11,Uu_S11,U_S11,P_S11,T1_A11
2021-01-16T14:00:00Z,00000200,21000000,,,,,,,0000.06,-000.30,-000.23,17.3,24.3,,00.0,0644.0,31.0
2021-01-16T14:01:00Z,00000200,21000000,,,,,,,-000.10,0000.14,-000.56,17.3,24.3,,00.0,0644.0,31.0
2021-01-16T14:02:00Z,00000200,21000000,,,,,,,-000.03,-000.29,0000.36,17.3,24.3,,00.0,0644.0,31.0
2021-01-16T14:03:00Z,00000200,61000000,,,,,,,0000.19,0000.61,0000.13,17.3,24.3,,00.0,0644.0,31.0
2021-01-16T14:04:00Z,00000200,41000000,0000.07,-000.39,0000.14,-000.35,0000.07,0000.15,-000.02,-000.19,-000.05,17.4,24.1,,00.0,0644.7,31.0
2021-01-16T14:05:00Z,00000200,01000000,0000.23,-000.04,-000.08,-000.16,0000.07,-000.23,-000.36,-000.25,-000.37,17.4,24.1,,00.0,0644.7,30.9
2021-01-16T14:06:00Z,00000200,01000000,0000.05,0000.05,0000.19,-000.27,0000.14,-000.05,0000.22,0000.30,0000.11,17.4,24.0,,00.0,0644.7,30.9
2021-01-16T14:07:00Z,00000200,01000000,0000.51,0000.10,-000.07,-000.81,0000.07,0000.07,0000.11,0000.23,0000.15,17.3,24.0,,00.0,0644.8,30.9
2021-01-16T14:08:00Z,00000200,01000000,-000.02,-000.08,0000.15,0000.41,0000.12,0000.00,0000.43,-000.29,0000.38,17.3,24.0,,00.0,0644.7,30.9
2021-01-16T14:09:00Z,00000200,01000000,0000.64,-000.19,-000.07,0000.33,0000.14,0000.12,-000.05,0000.37,-000.07,17.2,24.0,,00.0,0644.6,30.9
2021-01-16T14:10:00Z,00000200,01000000,0000.00,0000.01,0000.06,0000.62,0000.21,-000.19,-000.02,-000.16,-000.04,17.2,23.9,,00.0,0644.6,30.9
2021-01-16T14:11:00Z,00000200,01000000,0000.42,-000.17,0000.02,-000.04,0000.13,0000.10,0000.04,0000.16,0000.39,17.2,23.9,,00.0,0644.6,30.9
2021-01-16T14:12:00Z,00000200,01000000,-000.48,-000.19,0000.16,-000.00,-000.02,-000.07,0000.12,-000.13,-000.20,17.1,23.9,,00.0,0644.5,30.9
2021-01-16T14:13:00Z,00000200,01000000,0000.43,0000.08,0000.03,-000.09,0000.27,0000.20,-000.04,0000.32,0000.10,17.1,23.9,,00.0,0644.5,30.9
2021-01-16T14:14:00Z,00000200,01000000,0000.32,-000.09,-000.07,0000.06,-000.12,-000.12,0000.36,0000.09,0000.03,17.0,23.8,,00.0,0644.4,30.9
2021-01-16T14:15:00Z,00000200,01000000,0000.06,-000.13,0000.00,-000.34,-000.17,-000.02,0000.33,0000.29,0000.04,17.0,23.8,,00.0,0644.4,30.9
2021-01-16T14:16:00Z,00000200,01000000,0000.43,-000.20,0000.22,-000.10,0000.01,-000.06,-000.23,0000.08,0000.11,17.0,23.8,,00.0,0644.4,30.9
2021-01-16T14:17:00Z,00000200,01000000,0000.76,-000.08,-000.09,0000.09,0000.12,-000.14,0000.31,-000.23,0000.42,16.9,23.8,,00.0,0644.4,30.9
2021-01-16T14:18:00Z,00000200,01000000,0000.47,-000.15,-000.03,-000.40,-000.07,-000.34,0000.01,0000.27,-000.19,16.9,23.7,,00.0,0644.4,30.9
2021-01-16T14:19:00Z,00000200,01000000,0000.00,-000.08,0000.01,-000.09,0000.10,-000.04,0000.03,-000.11,0000.24,16.9,23.7,,00.0,0644.4,30.9
2021-01-16T14:20:00Z,00000200,01000000,0000.39,-000.23,-000.03,-000.77,0000.14,-000.24,0000.04,0000.38,-000.19,16.9,23.7,,00.0,0644.5,30.9
2021-01-16T14:21:00Z,00000200,01000000,-000.02,-000.05,-000.03,-000.27,-000.03,0000.05,0000.29,-000.01,0000.09,17.0,23.7,,00.0,0644.5,30.9
2021-01-16T14:22:00Z,00000200,01000000,-000.24,-000.23,0000.40,-000.21,0000.09,-000.11,-000.05,-000.18,0000.01,17.0,23.7,,00.0,0644.5,30.9
2021-01-16T14:23:00Z,00000200,01000000,0000.32,0000.10,-000.20,-000.01,0000.11,-000.26,-000.36,0000.05,-000.15,17.0,23.7,,00.0,0644.5,30.9
2021-01-16T14:24:00Z,00000200,01000000,0000.27,0000.12,-000.01,0000.10,-000.01,-000.08,0000.35,0000.09,-000.14,17.0,23.7,,00.0,0644.5,30.9
2021-01-16T14:25:00Z,00000200,01000000,-000.20,-000.08,-000.41,-000.19,0000.19,-000.09,-000.30,-000.05,0000.06,16.9,23.7,,00.0,0644.6,30.9
2021-01-16T14:26:00Z,00000200,01000000,0000.19,0000.05,0000.24,0000.06,0000.28,-000.03,-000.03,-000.21,-000.05,16.9,23.6,,00.0,0644.6,30.9
2021-01-16T14:27:00Z,00000200,01000000,0000.52,-000.14,-000.06,-000.24,0000.20,-000.06,-000.30,-000.34,-000.16,16.8,23.6,,00.0,0644.7,30.9
2021-01-16T14:28:00Z,00000200,01000000,0000.08,-000.26,-000.19,-000.16,0000.25,-000.08,-000.11,-000.08,0000.13,16.8,23.6,,00.0,0644.7,30.9
2021-01-16T14:29:00Z,00000200,01000000,0000.23,-000.09,0000.18,-000.68,0000.17,-000.01,-000.12,0000.25,-000.34,16.8,23.6,,00.0,0644.7,30.9
2021-01-16T14:30:00Z,00000200,01000000,0000.09,-000.23,0000.01,0000.01,0000.05,-000.10,-000.19,-000.17,0000.06,16.7,23.6,,00.0,0644.6,30.9
2021-01-16T14:31:00Z,00000200,01000000,-000.60,-000.04,-000.21,0000.56,-000.14,0000.05,0000.37,-000.27,-000.47,16.7,23.5,,00.0,0644.6,30.9
2021-01-16T14:32:00Z,00000200,01000000,0000.56,-000.02,0000.03,-000.22,0000.20,0000.19,0000.06,-000.10,0000.40,16.7,23.5,,00.0,0644.6,30.9
2021-01-16T14:33:00Z,00000200,01000000,-000.35,0000.10,-000.23,0000.05,-000.16,-000.27,-000.05,-000.03,0000.01,16.6,23.5,,00.0,0644.6,30.8
2021-01-16T14:34:00Z,00000200,01000000,0000.62,0000.27,-000.28,-000.47,-000.24,-000.25,-000.18,0000.02,-000.18,16.7,23.5,,00.0,0644.6,30.9
2021-01-16T14:35:00Z,00000200,01000000,0000.01,-000.03,0000.07,-000.25,0000.14,0000.08,0000.06,-000.16,0000.17,16.7,23.5,,00.0,0644.6,30.9
2021-01-16T14:36:00Z,00000200,01000000,0000.06,-000.06,-000.12,-000.37,-000.04,-000.08,0000.27,0000.60,0000.22,16.7,23.5,,00.0,0644.6,30.9
2021-01-16T14:37:00Z,00000200,01000000,0000.75,-000.15,0000.07,0000.32,0000.20,0000.02,0000.08,0000.16,-000.07,16.8,23.5,,00.0,0644.6,30.9
2021-01-16T14:38:00Z,00000200,01000000,0000.30,-000.07,0000.08,-000.15,0000.02,0000.08,-000.35,-000.22,-000.20,16.9,23.6,,00.0,0644.6,30.9
2021-01-16T14:39:00Z,00000200,01000000,0000.63,0000.21,-000.37,0000.17,-000.06,0000.11,-000.20,-000.36,0000.09,16.9,23.6,,00.0,0644.6,30.9
2021-01-16T14:40:00Z,00000200,01000000,0000.64,0000.04,-000.04,-000.20,0000.11,-000.14,0000.46,0000.36,-000.10,16.9,23.6,,00.0,0644.6,30.9
2021-01-16T14:41:00Z,00000200,01000000,-000.01,0000.03,-000.25,-000.04,0000.09,-000.39,-000.43,-000.05,0000.29,16.8,23.5,,00.0,0644.6,30.9
2021-01-16T14:42:00Z,00000200,01000000,0000.22,0000.16,0000.03,-000.04,0000.00,-000.09,0000.16,-000.17,-000.37,16.8,23.5,,00.0,0644.6,30.9
2021-01-16T14:43:00Z,00000200,01000000,0000.37,0000.26,0000.36,0000.00,0000.02,0000.11,-000.09,-000.25,-000.27,16.8,23.5,,00.0,0644.7,30.9
2021-01-16T14:44:00Z,00000200,01000000,0000.83,0000.06,0000.06,-000.02,0000.09,-000.23,-000.03,0000.02,-000.04,16.7,23.5,,00.0,0644.7,30.9
2021-01-16T14:45:00Z,00000200,01000000,-000.39,-000.23,0000.12,0000.00,-000.19,-000.01,-000.29,-000.13,0000.10,16.7,23.5,,00.0,0644.7,30.9
2021-01-16T14:46:00Z,00000200,01000000,0000.26,0000.01,0000.15,-000.08,-000.00,-000.08,-000.09,-000.45,-000.00,16.6,23.4,,00.0,0644.7,30.9
2021-01-16T14:47:00Z,00000200,01000000,0000.01,0000.15,-000.05,-000.12,0000.04,-000.06,-000.36,-000.06,-000.21,16.6,23.4,,00.0,0644.7,30.9
2021-01-16T14:48:00Z,00000200,01000000,-000.36,-000.05,0000.00,-000.24,0000.25,-000.30,-000.02,-000.47,-000.01,16.6,23.4,,00.0,0644.7,30.9
2021-01-16T14:49:00Z,00000200,01000000,-000.35,-000.14,0000.15,-000.58,0000.06,0000.11,-000.19,0000.38,-000.02,16.6,23.3,,00.0,0644.7,30.8
2021-01-16T14:50:00Z,00000200,01000000,-000.06,0000.15,-000.15,-000.39,0000.05,-000.21,0000.31,0000.05,-000.11,16.6,23.4,,00.0,0644.8,30.9
2021-01-16T14:51:00Z,00000200,01000000,-000.35,-000.09,0000.14,0000.20,-000.01,-000.20,0000.06,0000.04,0000.35,16.7,23.4,,00.0,0644.8,30.9
2021-01-16T14:52:00Z,00000200,01000000,0000.43,0000.15,0000.03,-000.44,0000.05,-000.22,0000.03,0000.12,0000.08,16.7,23.4,,00.0,0644.8,30.9
2021-01-16T14:53:00Z,00000200,01000000,0000.21,0000.03,0000.13,-000.41,0000.13,0000.15,-000.27,-000.01,-000.43,16.8,23.4,,00.0,0644.7,30.9
2021-01-16T14:54:00Z,00000200,01000000,0000.62,-000.13,-000.18,-000.47,-000.05,-000.14,0000.23,-000.04,0000.28,16.8,23.5,,00.0,0644.7,30.9
2021-01-16T14:55:00Z,00000200,01000000,0000.44,0000.17,0000.02,-000.19,0000.18,0000.04,-000.35,-000.04,-000.14,16.9,23.5,,00.0,0644.7,30.9
2021-01-16T14:56:00Z,00000200,01000000,0000.40,0000.12,-000.24,0000.40,0000.02,0000.23,0000.18,0000.13,-000.08,16.8,23.5,,00.0,0644.6,30.9
2021-01-16T14:57:00Z,00000200,41000000,,,,,,,0000.29,0000.47,0000.20,16.8,23.5,,00.0,0644.6,30.9
2021-01-16T14:58:00Z,00000200,61000000,,,,,,,-000.01,-000.58,-000.10,16.4,23.6,,00.0,0643.7,30.9
2021-01-16T14:59:00Z,00000200,21000000,,,,,,,-000.16,-000.11,0000.13,16.3,23.7,,00.0,0643.7,30.9
